�������l�o���
Date,Time,MP-1(��Sv/h),MP-2(��Sv/h),MP-3(��Sv/h),MP-4(��Sv/h),MP-5(��Sv/h),MP-6(��Sv/h),MP-7(��Sv/h),MP-8(��Sv/h),����,����(m/s),���J
2023/01/30,00:00,0.556,0.802,0.508,1.034,0.710,0.320,0.581,0.552,�k��,3.8,��
2023/01/30,00:10,0.555,0.802,0.507,1.036,0.711,0.319,0.582,0.554,�k��,4.4,��
2023/01/30,00:20,0.556,0.802,0.507,1.035,0.714,0.319,0.580,0.553,�k��,4.4,��
2023/01/30,00:30,0.556,0.802,0.506,1.035,0.711,0.318,0.581,0.555,�k��,4.1,��
2023/01/30,00:40,0.558,0.802,0.509,1.035,0.712,0.320,0.582,0.554,�k��,4.4,��
2023/01/30,00:50,0.556,0.801,0.506,1.035,0.711,0.321,0.583,0.555,�k��,4.4,��
2023/01/30,01:00,0.556,0.803,0.507,1.037,0.711,0.318,0.581,0.553,�k��,4.2,��
2023/01/30,01:10,0.555,0.801,0.508,1.036,0.712,0.319,0.583,0.554,�k��,4.6,��
2023/01/30,01:20,0.557,0.802,0.507,1.035,0.711,0.319,0.582,0.554,�k��,5.0,��
2023/01/30,01:30,0.557,0.802,0.507,1.036,0.714,0.318,0.582,0.554,�k��,4.6,��
2023/01/30,01:40,0.556,0.803,0.508,1.037,0.710,0.321,0.582,0.554,�k��,5.3,��
2023/01/30,01:50,0.558,0.802,0.508,1.037,0.711,0.321,0.581,0.554,�k��,5.5,��
2023/01/30,02:00,0.558,0.804,0.510,1.038,0.710,0.321,0.582,0.554,�k��,6.3,��
2023/01/30,02:10,0.555,0.802,0.509,1.039,0.712,0.321,0.582,0.554,�k��,5.6,��
2023/01/30,02:20,0.555,0.803,0.506,1.037,0.710,0.320,0.582,0.553,�k��,5.6,��
2023/01/30,02:30,0.557,0.804,0.505,1.037,0.713,0.319,0.582,0.554,�k��,6.7,��
2023/01/30,02:40,0.556,0.802,0.507,1.036,0.713,0.321,0.582,0.554,�k��,5.2,��
2023/01/30,02:50,0.558,0.804,0.508,1.037,0.712,0.321,0.582,0.554,�k��,5.2,��
2023/01/30,03:00,0.558,0.801,0.508,1.037,0.713,0.321,0.582,0.554,�k��,6.3,��
2023/01/30,03:10,0.558,0.803,0.506,1.036,0.711,0.319,0.583,0.554,�k��,6.7,��
2023/01/30,03:20,0.557,0.804,0.508,1.038,0.711,0.320,0.582,0.555,�k��,7.2,��
2023/01/30,03:30,0.556,0.802,0.509,1.036,0.712,0.321,0.582,0.554,�k�k��,7.4,��
2023/01/30,03:40,0.556,0.802,0.509,1.036,0.711,0.320,0.583,0.555,�k��,6.0,��
2023/01/30,03:50,0.557,0.801,0.508,1.036,0.714,0.320,0.583,0.554,�k��,6.6,��
2023/01/30,04:00,0.558,0.802,0.507,1.037,0.713,0.317,0.584,0.555,�k�k��,7.7,��
2023/01/30,04:10,0.558,0.801,0.508,1.038,0.714,0.319,0.583,0.556,�k��,6.9,��
2023/01/30,04:20,0.555,0.802,0.508,1.037,0.712,0.319,0.583,0.556,�k�k��,6.7,��
2023/01/30,04:30,0.557,0.801,0.508,1.037,0.712,0.318,0.584,0.554,�k�k��,6.6,��
2023/01/30,04:40,0.557,0.801,0.508,1.038,0.711,0.319,0.584,0.553,�k�k��,7.7,��
2023/01/30,04:50,0.557,0.803,0.507,1.036,0.712,0.320,0.582,0.554,�k�k��,7.1,��
2023/01/30,05:00,0.556,0.801,0.508,1.035,0.713,0.318,0.582,0.554,�k�k��,7.2,��
2023/01/30,05:10,0.556,0.802,0.507,1.037,0.713,0.320,0.582,0.554,�k�k��,7.5,��
2023/01/30,05:20,0.557,0.802,0.508,1.036,0.712,0.319,0.584,0.554,�k�k��,7.1,��
2023/01/30,05:30,0.557,0.802,0.509,1.037,0.710,0.320,0.583,0.555,�k�k��,6.4,��
2023/01/30,05:40,0.557,0.802,0.506,1.036,0.712,0.318,0.582,0.554,�k�k��,6.6,��
2023/01/30,05:50,0.557,0.801,0.505,1.038,0.710,0.318,0.582,0.554,�k�k��,6.6,��
2023/01/30,06:00,0.557,0.803,0.507,1.035,0.712,0.320,0.584,0.554,�k�k��,6.7,��
2023/01/30,06:10,0.556,0.801,0.508,1.037,0.714,0.320,0.582,0.555,�k�k��,7.7,��
2023/01/30,06:20,0.556,0.802,0.507,1.035,0.711,0.318,0.583,0.555,�k�k��,6.9,��
2023/01/30,06:30,0.556,0.800,0.507,1.039,0.712,0.319,0.583,0.555,�k�k��,7.4,��
2023/01/30,06:40,0.556,0.802,0.508,1.037,0.711,0.320,0.583,0.554,�k�k��,7.5,��
2023/01/30,06:50,0.556,0.801,0.505,1.038,0.710,0.319,0.582,0.554,�k�k��,7.1,��
2023/01/30,07:00,0.556,0.800,0.508,1.038,0.711,0.319,0.584,0.556,�k�k��,7.4,��
2023/01/30,07:10,0.557,0.801,0.507,1.037,0.712,0.319,0.583,0.555,�k�k��,7.4,��
2023/01/30,07:20,0.557,0.801,0.509,1.039,0.712,0.320,0.583,0.553,�k�k��,6.6,��
2023/01/30,07:30,0.558,0.801,0.507,1.037,0.711,0.318,0.583,0.556,�k�k��,6.6,��
2023/01/30,07:40,0.557,0.801,0.507,1.037,0.710,0.318,0.583,0.553,�k�k��,5.8,��
2023/01/30,07:50,0.556,0.800,0.507,1.037,0.711,0.320,0.582,0.554,�k�k��,5.8,��
2023/01/30,08:00,0.556,0.802,0.509,1.038,0.712,0.319,0.584,0.555,�k�k��,5.8,��
2023/01/30,08:10,0.557,0.802,0.507,1.038,0.711,0.319,0.584,0.553,�k�k��,5.0,��
2023/01/30,08:20,0.557,0.800,0.506,1.037,0.711,0.320,0.581,0.555,�k�k��,6.0,��
2023/01/30,08:30,0.556,0.799,0.507,1.037,0.712,0.319,0.583,0.555,�k��,4.7,��
2023/01/30,08:40,0.558,0.800,0.506,1.038,0.712,0.320,0.583,0.555,�k��,4.5,��
2023/01/30,08:50,0.557,0.801,0.507,1.036,0.710,0.321,0.583,0.554,�k�k��,3.9,��
2023/01/30,09:00,0.555,0.800,0.507,1.036,0.712,0.321,0.584,0.554,�k�k��,3.8,��
2023/01/30,09:10,0.557,0.803,0.506,1.038,0.711,0.319,0.585,0.555,�k�k��,3.4,��
2023/01/30,09:20,0.558,0.802,0.506,1.038,0.711,0.320,0.584,0.555,�k�k��,3.8,��
2023/01/30,09:30,0.558,0.802,0.506,1.037,0.709,0.320,0.583,0.554,�k�k��,3.2,��
2023/01/30,09:40,0.557,0.805,0.507,1.038,0.710,0.320,0.585,0.555,�k�k��,3.0,��
2023/01/30,09:50,0.558,0.802,0.508,1.037,0.711,0.322,0.583,0.554,�k,2.2,��
2023/01/30,10:00,0.559,0.804,0.507,1.038,0.710,0.318,0.582,0.554,�k,2.4,��
2023/01/30,10:10,0.557,0.803,0.509,1.040,0.711,0.319,0.583,0.555,�k,2.3,��
2023/01/30,10:20,0.558,0.803,0.508,1.038,0.711,0.321,0.583,0.553,�k�k��,3.3,��
2023/01/30,10:30,0.558,0.802,0.509,1.040,0.714,0.320,0.581,0.555,�k�k��,3.0,��
2023/01/30,10:40,0.558,0.803,0.508,1.039,0.713,0.321,0.582,0.554,�k�k��,3.1,��
2023/01/30,10:50,0.558,0.803,0.508,1.037,0.712,0.320,0.581,0.554,�k�k��,3.0,��
2023/01/30,11:00,0.559,0.802,0.509,1.039,0.713,0.320,0.582,0.554,�k�k��,3.5,��
2023/01/30,11:10,0.557,0.803,0.510,1.039,0.714,0.320,0.583,0.556,�k�k��,3.8,��
2023/01/30,11:20,0.558,0.801,0.508,1.037,0.713,0.321,0.581,0.554,�k�k��,3.9,��
2023/01/30,11:30,0.557,0.803,0.509,1.038,0.712,0.320,0.581,0.555,�k�k��,2.8,��
2023/01/30,11:40,0.559,0.802,0.509,1.040,0.714,0.320,0.583,0.554,�k�k��,2.6,��
2023/01/30,11:50,0.560,0.803,0.510,1.039,0.715,0.321,0.582,0.554,�k��,2.5,��
2023/01/30,12:00,0.560,0.804,0.510,1.040,0.714,0.322,0.582,0.554,���k��,2.0,��
2023/01/30,12:10,0.559,0.805,0.509,1.037,0.711,0.322,0.582,0.556,�k��,2.7,��
2023/01/30,12:20,0.559,0.805,0.510,1.039,0.714,0.321,0.581,0.555,�k��,3.1,��
2023/01/30,12:30,0.560,0.807,0.509,1.039,0.712,0.319,0.580,0.555,�k��,2.6,��
2023/01/30,12:40,0.562,0.804,0.511,1.039,0.714,0.321,0.582,0.556,���k��,2.2,��
2023/01/30,12:50,0.559,0.805,0.510,1.038,0.714,0.322,0.581,0.556,��,2.8,��
2023/01/30,13:00,0.560,0.805,0.510,1.040,0.711,0.321,0.582,0.556,�k��,2.5,��
2023/01/30,13:10,0.559,0.804,0.511,1.039,0.714,0.321,0.582,0.556,���k��,2.4,��
2023/01/30,13:20,0.560,0.804,0.511,1.038,0.714,0.322,0.582,0.558,���k��,2.9,��
2023/01/30,13:30,0.560,0.806,0.512,1.039,0.716,0.322,0.583,0.557,��,1.8,��
2023/01/30,13:40,0.561,0.806,0.512,1.040,0.714,0.322,0.584,0.556,���쓌,2.0,��
2023/01/30,13:50,0.560,0.805,0.511,1.039,0.714,0.321,0.582,0.555,���k��,2.2,��
2023/01/30,14:00,0.560,0.807,0.513,1.039,0.714,0.322,0.586,0.556,��,1.5,��
2023/01/30,14:10,0.561,0.807,0.512,1.039,0.716,0.320,0.585,0.555,��,1.8,��
2023/01/30,14:20,0.560,0.806,0.512,1.039,0.714,0.321,0.586,0.554,��,1.5,��
2023/01/30,14:30,0.560,0.807,0.511,1.041,0.715,0.322,0.585,0.553,�k�k��,2.3,��
2023/01/30,14:40,0.560,0.809,0.513,1.039,0.714,0.322,0.583,0.554,��,1.4,��
2023/01/30,14:50,0.561,0.808,0.512,1.041,0.714,0.322,0.586,0.554,�k��,2.3,��
2023/01/30,15:00,0.561,0.807,0.510,1.039,0.715,0.322,0.584,0.554,�k,3.0,��
2023/01/30,15:10,0.560,0.807,0.512,1.041,0.717,0.322,0.584,0.556,�k,2.6,��
2023/01/30,15:20,0.562,0.809,0.512,1.040,0.715,0.321,0.584,0.558,�k,3.2,�L
2023/01/30,15:30,0.563,0.809,0.513,1.040,0.715,0.322,0.583,0.555,�k,3.5,�L
2023/01/30,15:40,0.560,0.808,0.511,1.041,0.715,0.323,0.584,0.555,�k�k��,2.8,�L
2023/01/30,15:50,0.562,0.809,0.513,1.042,0.717,0.322,0.585,0.555,�k�k��,1.8,��
2023/01/30,16:00,0.561,0.809,0.513,1.041,0.718,0.322,0.583,0.555,�k�k��,2.0,��
2023/01/30,16:10,0.563,0.809,0.512,1.042,0.717,0.322,0.586,0.556,�k�k��,3.3,�L
2023/01/30,16:20,0.562,0.809,0.512,1.041,0.718,0.322,0.584,0.555,�k��,2.5,��
2023/01/30,16:30,0.562,0.809,0.513,1.040,0.716,0.322,0.585,0.554,�k��,3.8,��
2023/01/30,16:40,0.561,0.807,0.514,1.042,0.717,0.322,0.585,0.556,���k��,3.8,�L
2023/01/30,16:50,0.562,0.810,0.512,1.040,0.716,0.323,0.584,0.555,��,2.7,��
2023/01/30,17:00,0.561,0.812,0.513,1.039,0.715,0.323,0.586,0.556,��,2.7,��
2023/01/30,17:10,0.562,0.810,0.514,1.040,0.716,0.323,0.585,0.555,���쐼,2.8,��
2023/01/30,17:20,0.561,0.808,0.513,1.040,0.718,0.322,0.585,0.555,���쐼,3.8,��
2023/01/30,17:30,0.560,0.809,0.511,1.043,0.717,0.321,0.585,0.555,��,6.0,��
2023/01/30,17:40,0.561,0.807,0.512,1.039,0.717,0.322,0.585,0.554,��,10.2,��
2023/01/30,17:50,0.561,0.809,0.511,1.041,0.717,0.320,0.585,0.554,��,10.8,��
2023/01/30,18:00,0.560,0.809,0.510,1.040,0.716,0.321,0.583,0.555,��,11.5,��
2023/01/30,18:10,0.559,0.808,0.511,1.041,0.716,0.321,0.585,0.554,��,13.0,��
2023/01/30,18:20,0.562,0.809,0.509,1.043,0.715,0.320,0.585,0.554,���쐼,10.2,��
2023/01/30,18:30,0.558,0.808,0.511,1.039,0.713,0.320,0.583,0.558,��,9.7,��
2023/01/30,18:40,0.558,0.808,0.510,1.043,0.713,0.318,0.585,0.554,��,8.8,��
2023/01/30,18:50,0.558,0.809,0.510,1.041,0.714,0.320,0.583,0.553,���쐼,9.6,��
2023/01/30,19:00,0.559,0.806,0.509,1.043,0.713,0.319,0.584,0.554,���쐼,9.3,��
2023/01/30,19:10,0.559,0.808,0.509,1.042,0.714,0.321,0.584,0.555,���쐼,10.7,��
2023/01/30,19:20,0.558,0.808,0.509,1.043,0.714,0.319,0.584,0.556,���쐼,8.6,��
2023/01/30,19:30,0.557,0.809,0.509,1.043,0.713,0.319,0.585,0.556,���쐼,8.6,��
2023/01/30,19:40,0.558,0.808,0.511,1.042,0.713,0.320,0.583,0.555,���쐼,9.9,��
2023/01/30,19:50,0.559,0.810,0.509,1.041,0.715,0.321,0.584,0.556,���쐼,9.7,��
2023/01/30,20:00,0.559,0.809,0.511,1.040,0.715,0.321,0.583,0.556,��,7.4,��
2023/01/30,20:10,0.559,0.808,0.510,1.042,0.712,0.322,0.584,0.557,���쐼,7.2,��
2023/01/30,20:20,0.559,0.807,0.510,1.043,0.714,0.320,0.584,0.556,���쐼,8.6,��
2023/01/30,20:30,0.559,0.809,0.509,1.043,0.713,0.322,0.583,0.555,���쐼,7.8,��
2023/01/30,20:40,0.560,0.807,0.511,1.043,0.716,0.322,0.585,0.555,���쐼,7.7,�L
2023/01/30,20:50,0.560,0.809,0.511,1.041,0.715,0.321,0.584,0.555,���쐼,8.8,��
2023/01/30,21:00,0.557,0.809,0.512,1.042,0.718,0.320,0.584,0.555,���쐼,7.5,��
2023/01/30,21:10,0.560,0.808,0.511,1.041,0.715,0.321,0.584,0.556,��,7.5,��
2023/01/30,21:20,0.557,0.807,0.510,1.042,0.716,0.321,0.583,0.554,��,6.6,��
2023/01/30,21:30,0.559,0.808,0.511,1.040,0.716,0.321,0.583,0.556,���쐼,6.3,��
2023/01/30,21:40,0.561,0.807,0.511,1.043,0.718,0.320,0.584,0.556,���쐼,6.0,��
2023/01/30,21:50,0.559,0.810,0.513,1.041,0.715,0.320,0.586,0.555,���쐼,6.6,��
2023/01/30,22:00,0.557,0.810,0.509,1.041,0.718,0.322,0.583,0.556,��,6.7,�L
2023/01/30,22:10,0.558,0.808,0.511,1.042,0.717,0.322,0.581,0.556,��,6.3,�L
2023/01/30,22:20,0.558,0.808,0.510,1.041,0.717,0.324,0.583,0.556,��,6.0,��
2023/01/30,22:30,0.558,0.807,0.511,1.043,0.717,0.323,0.583,0.555,��,5.5,��
2023/01/30,22:40,0.560,0.809,0.510,1.042,0.717,0.321,0.585,0.556,��,5.2,��
2023/01/30,22:50,0.559,0.811,0.510,1.041,0.716,0.321,0.585,0.555,��,6.4,�L
2023/01/30,23:00,0.559,0.809,0.513,1.043,0.716,0.323,0.583,0.555,��,8.0,�L
2023/01/30,23:10,0.559,0.809,0.512,1.042,0.719,0.324,0.584,0.555,���k��,7.7,�L
2023/01/30,23:20,0.560,0.810,0.513,1.041,0.719,0.324,0.585,0.555,���k��,7.2,�L
2023/01/30,23:30,0.560,0.811,0.512,1.043,0.719,0.325,0.584,0.556,�k��,7.1,�L
2023/01/30,23:40,0.562,0.810,0.513,1.043,0.717,0.324,0.585,0.556,�k��,7.1,�L
2023/01/30,23:50,0.561,0.809,0.512,1.040,0.715,0.324,0.583,0.555,�k��,7.1,�L
